Location: Newark
(13.6797°N, 8.5297°E)
Time: 20:58:04
(UTC+00:00)

Courier 1B Rocket - Pass Details

Date: 20 January 2020
Orbit: 920 x 1202 km, 28.2° (Epoch: 27 February)

Event Time Altitude Azimuth Distance (km) Brightness Sun altitude
Rises 17:49:20 0° 302° (WNW) 3,552 8.6 -7.5°
Reaches altitude 10° 17:52:03 10° 309° (NW) 2,602 7.7 -8.2°
Maximum altitude 17:58:00 46° 22° (NNE) 1,210 5.3 -9.5°
Enters shadow 18:03:50 11° 94° (E) 2,576 6.6 -10.9°
